TimePDT,TemperatureF,Dew PointF,Humidity,Sea Level PressureIn,VisibilityMPH,Wind Direction,Wind SpeedMPH,Gust SpeedMPH,PrecipitationIn,Events,Conditions,WindDirDegrees,DateUTC
12:56 AM,55.0,51.1,86,30.01,10.0,West,5.8,-,N/A,,Overcast,270,2013-08-06 07:56:00
1:56 AM,55.9,51.1,84,30.01,10.0,WSW,6.9,-,N/A,,Overcast,250,2013-08-06 08:56:00
2:56 AM,55.9,51.1,84,30.00,10.0,SSW,5.8,-,N/A,,Overcast,210,2013-08-06 09:56:00
3:56 AM,55.9,51.1,84,30.00,10.0,WSW,5.8,-,N/A,,Overcast,250,2013-08-06 10:56:00
4:56 AM,55.9,51.1,84,30.00,10.0,WSW,6.9,-,N/A,,Overcast,250,2013-08-06 11:56:00
5:56 AM,55.9,51.1,84,30.00,10.0,WSW,5.8,-,N/A,,Overcast,240,2013-08-06 12:56:00
6:56 AM,55.9,51.1,84,30.02,10.0,West,8.1,-,N/A,,Overcast,270,2013-08-06 13:56:00
7:56 AM,55.9,51.1,84,30.03,10.0,West,6.9,-,N/A,,Overcast,280,2013-08-06 14:56:00
8:56 AM,57.0,50.0,77,30.05,10.0,West,8.1,-,N/A,,Overcast,260,2013-08-06 15:56:00
9:56 AM,57.9,51.1,78,30.06,10.0,Variable,5.8,-,N/A,,Overcast,0,2013-08-06 16:56:00
10:56 AM,61.0,51.1,70,30.05,10.0,West,11.5,-,N/A,,Overcast,280,2013-08-06 17:56:00
11:56 AM,62.1,52.0,70,30.05,10.0,WNW,11.5,-,N/A,,Mostly Cloudy,290,2013-08-06 18:56:00
12:56 PM,66.9,51.1,57,30.04,10.0,West,13.8,20.7,N/A,,Mostly Cloudy,270,2013-08-06 19:56:00
1:56 PM,68.0,51.1,55,30.03,10.0,West,20.7,-,N/A,,Scattered Clouds,270,2013-08-06 20:56:00
2:56 PM,68.0,51.1,55,30.03,10.0,West,16.1,-,N/A,,Scattered Clouds,260,2013-08-06 21:56:00
3:56 PM,66.0,51.1,59,30.03,10.0,WSW,21.9,29.9,N/A,,Scattered Clouds,250,2013-08-06 22:56:00
4:56 PM,64.0,51.1,63,30.02,10.0,West,23.0,-,N/A,,Scattered Clouds,270,2013-08-06 23:56:00
5:56 PM,64.0,51.1,63,30.02,10.0,West,19.6,26.5,N/A,,Scattered Clouds,260,2013-08-07 00:56:00
6:56 PM,62.1,51.1,67,30.02,10.0,WSW,12.7,-,N/A,,Scattered Clouds,250,2013-08-07 01:56:00
7:56 PM,61.0,52.0,72,30.03,10.0,West,15.0,-,N/A,,Scattered Clouds,280,2013-08-07 02:56:00
8:56 PM,60.1,52.0,75,30.04,10.0,West,11.5,-,N/A,,Scattered Clouds,260,2013-08-07 03:56:00
9:46 PM,60.8,53.6,77,30.05,10.0,WSW,6.9,-,N/A,,Mostly Cloudy,240,2013-08-07 04:46:00
9:56 PM,61.0,53.1,75,30.06,10.0,SW,8.1,-,N/A,,Mostly Cloudy,230,2013-08-07 04:56:00
10:27 PM,60.8,53.6,77,30.06,10.0,WSW,10.4,-,N/A,,Mostly Cloudy,240,2013-08-07 05:27:00
10:56 PM,60.1,53.1,78,30.06,10.0,WSW,10.4,-,N/A,,Overcast,240,2013-08-07 05:56:00
11:56 PM,60.1,53.1,78,30.06,10.0,SW,8.1,-,N/A,,Overcast,230,2013-08-07 06:56:00